Lid_Strength_Index
1 0 0 0 0 1 1 1 1 1 0 -0 0 1 1 1 0 1 0 0 1 0 -0 1 1 0 1 2 2 2 4 5 7 5 4 3 3 4 4 3 3 4 4
0 0 1 0 0 1 1 1 1 2 1 0 0 1 1 1 1 1 1 1 1 1 1 1 2 2 1 1 3 3 4 3 6 6 4 4 4 4 3 3 4 4 4
0 1 1 1 1 1 1 1 1 2 1 0 1 1 1 1 2 1 1 1 1 1 1 1 2 2 3 3 4 4 4 3 4 5 5 5 4 4 5 4 4 5 4
1 1 1 1 1 1 1 1 2 2 1 1 1 1 1 2 1 1 1 1 1 1 0 1 2 3 4 3 4 4 4 5 5 6 5 5 5 4 5 6 6 5 6
1 1 1 0 0 1 1 2 2 1 1 0 1 1 1 1 2 1 1 1 1 1 0 1 2 2 3 4 5 5 4 5 6 6 6 6 6 6 7 6 6 6 5
1 1 0 1 1 1 2 2 2 2 0 0 1 1 1 1 4 3 3 1 1 1 1 2 2 2 2 4 4 4 4 6 6 7 7 7 6 5 6 5 7 7 8
1 1 1 1 2 2 2 2 2 0 -0 0 1 1 1 1 3 4 4 2 2 2 1 2 2 3 3 4 4 4 4 4 5 5 7 7 6 6 5 6 6 7 7
1 1 1 2 2 3 3 2 0 -0 0 1 1 1 1 1 4 5 5 2 2 1 1 2 2 3 3 5 5 5 5 4 4 5 6 6 6 5 7 7 6 6 6
1 1 2 2 3 3 3 1 0 0 0 1 1 1 1 0 5 5 5 2 2 3 3 3 4 4 5 7 7 7 6 5 4 5 6 6 7 7 7 7 9 9 8
1 2 2 3 3 5 3 1 0 1 1 2 1 0 1 1 6 5 5 3 3 4 3 4 6 7 8 8 8 8 8 7 6 7 6 7 6 6 7 7 8 9 8
1 2 2 3 3 2 1 0 1 2 2 1 1 0 0 0 1 5 6 4 5 5 6 7 7 8 9 9 9 9 8 7 7 7 7 7 7 6 7 6 6 7 8
2 2 4 3 3 2 1 2 2 1 1 1 1 1 2 1 3 6 7 7 7 8 8 7 7 9 10 10 9 9 9 8 8 8 9 9 8 8 7 6 4 5 5
3 4 4 3 2 2 2 2 2 1 2 2 4 4 3 3 2 6 7 8 9 8 8 8 9 9 9 8 8 8 8 8 8 9 9 9 8 8 7 6 4 4 4
4 3 3 2 2 2 2 2 3 3 3 3 4 4 4 3 3 5 6 8 9 9 9 9 8 7 8 7 7 7 7 7 8 9 9 8 8 8 8 7 7 6 6
4 4 3 2 2 2 2 2 2 1 3 4 3 3 4 4 6 9 11 11 11 11 9 8 8 8 8 8 8 8 8 7 8 8 8 9 9 9 9 7 7 7 6
5 5 4 3 3 3 3 2 7 7 7 8 9 7 4 9 10 12 12 12 12 11 8 8 9 10 11 10 9 9 8 8 8 8 8 9 10 10 9 8 7 7 5
4 3 3 5 3 3 3 3 4 4 8 9 9 8 9 10 12 12 12 12 12 10 9 10 10 10 10 11 10 10 10 10 9 10 10 10 10 10 10 8 8 7 6
4 8 3 3 3 4 3 3 3 4 4 3 9 7 10 11 12 12 12 11 10 9 10 11 11 10 11 11 11 11 11 10 11 10 11 10 10 10 10 8 8 8 8
3 3 3 3 3 4 3 3 4 3 3 4 4 7 8 12 12 12 12 11 11 11 11 11 11 11 11 11 11 11 11 11 11 10 9 11 10 10 9 8 8 11 10
4 8 6 3 4 3 4 4 4 3 4 5 6 7 10 12 12 12 11 11 11 11 11 11 11 11 11 11 12 12 11 11 10 10 10 10 10 9 8 9 8 8 7
3 3 9 3 4 4 4 4 3 3 5 5 6 9 15 12 12 13 12 11 11 11 11 11 11 11 11 11 11 12 11 10 10 10 10 10 9 9 8 8 7 7 6
4 4 4 4 4 4 4 3 3 4 5 6 7 10 14 12 13 13 13 12 11 10 10 10 11 10 10 10 11 11 11 11 10 10 10 9 9 8 8 7 6 6 6
4 4 4 5 4 6 3 2 3 4 5 6 9 11 12 13 13 13 13 12 11 10 9 9 9 10 9 9 10 10 10 10 10 9 9 9 9 8 7 7 5 6 6
4 4 5 5 4 3 3 3 4 7 6 7 9 11 13 13 13 13 13 12 11 10 9 8 8 9 8 8 9 9 9 8 7 7 7 8 8 8 6 5 5 5 6
5 5 5 4 3 3 3 3 4 5 6 7 9 12 13 13 13 13 13 12 11 9 8 7 7 7 7 7 8 8 11 12 8 9 6 6 6 5 5 5 4 5 5
5 5 4 4 3 3 3 4 5 6 6 7 9 12 13 13 13 13 13 12 11 9 7 6 7 7 7 7 8 11 12 11 9 10 6 5 5 4 4 4 4 5 5